PAGYPAYA

Guest
Details From PAGY - SKAGWAY
To PAYA - YAKUTAT
Flight Number -
Tags decoded
Created
Modified
Stats Distance 155 nm / 287 km
Max Altitude 0 ft / 0 m
Waypoints 4
Social Downloads 0
Likes 0
Share VATSIM

Download

Looking for another format? Having issues loading an existing format? Contact us
Advertisement - Login to hide

Notes

Requested: PAGY HNS FAKES PAYA

Route

PAGY HNS FAKES PAYA

ID Type Via Altitude Latitude Longitude Leg Dist Tot Dist Heading (true) Name
O PAGY APT - 0 ft / 0 m 59.46006˚ -135.31566˚ - 0 nm - SKAGWAY
HNS NDB - 0 ft / 0 m 59.21208˚ -135.43086˚ 15 nm 15 nm 193° / 193° HAINES NDB
FAKES FIX - 0 ft / 0 m 58.98241˚ -137.80800˚ 74 nm 89 nm 260° / 258° -
O PAYA APT - 0 ft / 0 m 59.50325˚ -139.66125˚ 64 nm 154 nm 300° / 298° YAKUTAT

Altitude Profile

Advertisement - Login to hide

PAGY

Details ICAO PAGY (SGY)
Name SKAGWAY
Region USA (Alaska)
Timezone America/Juneau (UTC-9.0)
Stats Elevation 44 ft / 13 m (AMSL)
Location 59.460062° -135.315661°
Runways 1
Magnetic Variation 19.348° E

METAR

PAGY 160153Z AUTO 21020G26KT 10SM OVC055 05/02 A2992 RMK AO2 PK WND 20026/0146 PRESFR SLP133 T00500017 TSNO

Decode

TAF

PAGY 152342Z 1600/1624 21015G25KT P6SM -SHRA SCT020 OVC050 FM160500 21011KT P6SM OVC060 FM160900 21010G18KT P6SM -RA SCT025 OVC035 FM161600 21018G28KT 4SM RA BKN015 OVC025 FM162100 21020G32KT 6SM -RA BR SCT015 OVC025 AMD LTD TO CLD VIS AND WIND

Decode

Departure Runways

ID Width Length Bearing (true) Bearing (mag) Surface Threshold Offset Overrun Length
02 75 ft / 23 m 3,542 ft / 1,080 m 43.94° 24.59° Asphalt 0 ft / 0 m 299 ft / 91 m
20 75 ft / 23 m 3,542 ft / 1,080 m 223.95° 204.60° Asphalt 0 ft / 0 m 299 ft / 91 m

PAYA

Details ICAO PAYA (YAK)
Name YAKUTAT
Region USA (Alaska)
Timezone America/Yakutat (UTC-9.0)
Stats Elevation 33 ft / 10 m (AMSL)
Location 59.503248° -139.661250°
Runways 2
Magnetic Variation 18.706° E

METAR

PAYA 160207Z AUTO 10012KT 10SM FEW009 BKN014 OVC027 04/02 A2985 RMK AO2 RAE05 P0000 T00390022 TSNO

Decode

TAF

PAYA 152342Z 1600/1624 10011KT P6SM -RA BKN015 OVC025 FM160700 10014G25KT 4SM RA BR BKN015 OVC025 PROB30 1609/1615 2SM RA BR BKN007 OVC015 FM162200 22011KT P6SM -SHRA BKN025 OVC035 AMD LTD TO CLD VIS AND WIND

Decode

Destination Runways

ID Width Length Bearing (true) Bearing (mag) Surface Threshold Offset Overrun Length
02 150 ft / 46 m 6,460 ft / 1,969 m 44.92° 26.21° Concrete 1,388 ft / 423 m 0 ft / 0 m
11 150 ft / 46 m 7,727 ft / 2,355 m 135.05° 116.34° Asphalt 0 ft / 0 m 0 ft / 0 m
20 150 ft / 46 m 6,460 ft / 1,969 m 224.95° 206.24° Concrete 0 ft / 0 m 0 ft / 0 m
29 150 ft / 46 m 7,727 ft / 2,355 m 315.08° 296.37° Asphalt 0 ft / 0 m 0 ft / 0 m

Approach Navaids

Runway Type Ident Frequency Range Bearing (true) Bearing (mag) Slope Elevation
11 Localiser IYAK 111.10 MHz 18 nm / 33 km 135.08° 116.38° - 24 ft / 7 m (AMSL)
11 Glidescope IYAK 111.10 MHz 10 nm / 19 km 135.06° 116.36° 3.00° 31 ft / 9 m (AMSL)

Popular Alternatives